Location: *
(43.9905°S, 176.4941°W)
Time: 00:04:12
(UTC+00:00)

Cosmos 1470 - Pass Details

Date: 08 December 2019
Orbit: 522 x 542 km, 82.5° (Epoch: 19 January)

Event Time Altitude Azimuth Distance (km) Brightness Sun altitude
Exits shadow 10:18:39 64° 52° (NE) 617 2.7 -20.9°
Maximum altitude 10:18:58 67° 84° (E) 601 2.8 -20.9°
Drops below altitude 10° 10:23:00 10° 166° (SSE) 1,843 6.3 -21.1°
Sets 10:25:12 0° 168° (SSE) 2,743 7.4 -21.3°
